x

Buoy F01 - West Penobscot Bay (44033) Wave Buoy

5:04 - Sun 1st Mar 2015 All times are EST. -5 hours from GMT.

  • Sig Wave height 1.0ft
  • Peak Period 8s
  • Wind
    7mph, 9mph gusts
  • Sea Temp 31°f
  • Air Temp 24°f
  • Sea Pressure 1037.7mb
  • Buoy F01 - West Penobscot Bay
  • Buoy F01 - West Penobscot Bay

More Historic Weather Station data

Upgrade to MSW Pro to gain access to the past 30 days of data for over 8000 Wavebouys and Weather Stations around the globe.

Join Pro

Comparision Forecast

View Surf forecast
   
dim. 03/01 5:04 1ft 8s 7 9 mph 1037.7mb 31f 24f
4:04 1.3ft 8s 7 9 mph 1037.3mb 30f 24f
3:04 1.3ft 8s 11 13 mph 1037.3mb 30f 24f
2:04 1.3ft 11s 11 13 mph 1037.9mb 30f 25f
1:04 1ft 11s 11
mph
1037.6mb 30f 24f
12:04 1ft 11s 9 11 mph 1037.2mb 30f 24f
sam. 02/28 11:04 1ft 11s 9 11 mph 1037.3mb 30f 24f
10:04 1ft 11s 9 11 mph 1037.5mb 31f 24f
9:04 1.3ft 11s 9
mph
1037.2mb 31f 25f
8:04 1.6ft 11s 7 9 mph 1036.8mb 31f 24f
7:04 1.6ft 11s 13 16 mph 1036.7mb 31f 26f
5:04 1.3ft 3s 18 20 mph 1036.5mb 31f 24f
4:04 1.6ft 3s 18 22 mph 1036.7mb 31f 23f
3:04 1.6ft 3s 18 22 mph 1036.8mb 31f 23f
2:04 1ft 3s 13 18 mph 1037mb 31f 22f
1:04 1.3ft 11s 9 13 mph 1037.6mb 31f 22f
12:04 1.3ft 11s 9 13 mph 1038.3mb 31f 19f
11:04 1.6ft 11s 7 11 mph 1038.6mb 31f 18f
10:04 1.3ft 11s 11 13 mph 1038.4mb 31f 16f
9:04 1.3ft 11s 7 11 mph 1038.3mb 31f 16f
8:04 1.3ft 11s 4 7 mph 1037.6mb 31f 18f
7:04 1.3ft 11s 7 9 mph 1036.9mb 31f 15f
6:04 1.3ft 11s 7 9 mph 1036.1mb 31f 14f
5:04 1.3ft 11s 7 9 mph 1035.1mb 31f 15f
4:04 1.6ft 11s 7 9 mph 1034.3mb 30f 15f
3:04 2ft 11s 11 16 mph 1033.6mb 30f 15f
2:04 1.6ft 11s 9
mph
1033.4mb 30f 15f
1:04 1.6ft 11s 9 11 mph 1032.8mb 30f 15f
12:04 1.6ft 11s 13 18 mph 1031.8mb 30f 16f
ven. 02/27 11:04 2ft 11s 11 13 mph 1031.2mb 30f 15f
10:04 2.5ft 11s 13 16 mph 1030.4mb 31f 17f
9:04 2.5ft 11s 13 16 mph 1029.5mb 31f 18f
8:04 2ft 11s 11 13 mph 1028.6mb 31f 19f
7:04 1.6ft 11s 9 13 mph 1028mb 31f 20f
6:04 1.6ft 11s 9 11 mph 1027mb 31f 20f
5:04 2ft 11s 11 13 mph 1026.1mb 31f 20f
4:04 2ft 11s 11 16 mph 1025.4mb 32f 20f
3:04 1.6ft 11s 11 18 mph 1025.1mb 32f 20f
2:04 1.6ft 11s 9 13 mph 1025mb 32f 19f
1:04 1.3ft 11s 7 9 mph 1025.1mb 32f 18f
12:04 1.3ft 11s 2 7 mph 1025.4mb 32f 16f
11:04 1ft 11s  -  2 mph 1025.9mb 32f 15f
10:04 1.6ft 11s 2 4 mph 1025.8mb 31f 15f
9:04 1.6ft 11s 9 13 mph 1025.6mb 31f 13f
8:04 1.3ft 3s 11 16 mph 1025.1mb 31f 12f
7:04  -   -  16 18 mph 1024.2mb 32f 11f
6:04 1.6ft 3s 16 22 mph 1023.3mb 32f 11f
5:04 2.5ft 3s 16 20 mph 1022.1mb 32f 11f
4:04 2.5ft 3s 16 20 mph 1020.8mb 32f 13f
3:04 1.6ft 3s 13 18 mph 1019.7mb 32f 13f
2:04 2.5ft 3s 16 20 mph 1019.7mb 32f 14f
1:04 2ft 3s 18 20 mph 1019.2mb 32f 15f
12:04 2ft 3s 18 20 mph 1018.7mb 32f 15f
jeu. 02/26 11:04 2.5ft 3s 18 20 mph 1018.3mb 31f 16f
10:04 1.6ft 3s 16 20 mph 1017.6mb 31f 16f
9:04 1.3ft 2s 16 20 mph 1016.8mb 31f 16f
8:04 1.6ft 11s  -  mph - 32f -
7:04 1.3ft 11s 13 18 mph 1015.9mb 32f 16f
6:04 1.3ft 11s 11 16 mph 1015.7mb 32f 15f
5:04 1.6ft 8s 13 16 mph 1015.1mb 32f 15f
4:04 1.3ft 11s 13 16 mph 1015mb 32f 15f
3:04 1.3ft 11s 13 16 mph 1015.1mb 32f 15f
2:04 1.3ft 8s 9 13 mph 1015.8mb 32f 14f
1:04 1.6ft 11s 13 16 mph 1016.5mb 32f 13f
12:04 1.3ft 3s 13 18 mph 1017.5mb 32f 12f
11:04 2ft 3s 13 16 mph 1018.6mb 32f 12f
10:04 2ft 3s 16 18 mph 1018.9mb 32f 12f
9:04 2ft 3s 11 16 mph 1019.3mb 32f 11f
8:04 2.5ft 3s 16 20 mph 1018.6mb 32f 12f
7:04 2.5ft 11s 18 22 mph 1017.6mb 32f 14f
6:04 2.5ft 11s 16 20 mph 1017.3mb 32f 14f
5:04 2ft 3s 18 22 mph 1016.4mb 32f 15f
4:04 2ft 8s 16 22 mph 1015.8mb 32f 17f
3:04 2.5ft 11s 18 25 mph 1015.1mb 32f 17f
2:04 2ft 3s 18 25 mph 1014.3mb 32f 19f
1:04 2.5ft 8s 20 27 mph 1013.4mb 32f 20f
12:04 2.5ft 11s 18 22 mph 1012.7mb 32f 21f
mer. 02/25 11:04 1.6ft 11s 20 25 mph 1012mb 32f 22f
10:04 1.6ft 6s 16 25 mph 1011.1mb 32f 23f
9:04 1ft 8s 13 16 mph 1009.8mb 32f 24f
8:04 1ft 11s 13 18 mph 1008mb 32f 24f
7:04 1.3ft 6s 9 11 mph 1007.2mb 32f 25f
6:04 1.3ft 6s 9 11 mph 1006mb 32f 26f
5:04 1.3ft 6s 9 13 mph 1004.7mb 32f 27f
4:04 1.6ft 6s 11 13 mph 1003.4mb 33f 27f
3:04 2ft 6s 11 16 mph 1002.6mb 33f 26f
2:04 2.5ft 6s 18 22 mph 1001.7mb 33f 24f
1:04 2ft 6s 11 13 mph 1001.5mb 32f 26f
12:04 2.5ft 6s 11 13 mph 1001.5mb 32f 26f